Location: Baix
(44.7118°N, 4.7648°E)
Time: 00:27:49
(UTC+00:00)

Vanguard 1 Rocket - Pass Details

Date: 06 October 2022
Orbit: 650 x 4225 km, 34.3° (Epoch: 05 December)

Event Time Altitude Azimuth Distance (km) Brightness Sun altitude
Rises 22:24:23 0° 272° (W) 7,253 12.2 -48.2°
Reaches altitude 10° 22:30:19 10° 267° (W) 5,658 11.5 -48.6°
Enters shadow 22:36:59 25° 253° (WSW) 3,812 10.4 -49.1°
